Kinloss, United Kingdom

6:40 AM GMT on November 18, 2017 (GMT +0000)
Kinloss Air Base

Weather History for EGQK - March, 2014

Change the Weather History Date:

Tuesday, March 25, 2014

  Actual Average Record
Temperature  
Mean Temperature 46 °F -  
Max Temperature 55 °F 50 °F 69 °F (2012)
Min Temperature 38 °F 37 °F 26 °F (2001)
Degree Days  
Heating Degree Days 18    
Moisture  
Dew Point 37 °F    
Average Humidity 62    
Maximum Humidity 76    
Minimum Humidity 42    
Precipitation  
Precipitation 0.00 in 0.05 in - ()
Sea Level Pressure  
Sea Level Pressure 29.81 in    
Wind  
Wind Speed 11 mph ()    
Max Wind Speed 21 mph    
Max Gust Speed 33 mph    
Visibility 9.7 miles    
Events Rain    
Averages and records for this station are not official NWS values.
T = Trace of Precipitation, MM = Missing Value Source: Averaged Metar Reports

Daily Weather History Graph

Daily Weather History Graph

Search for Another Location

Airport or City:

Trip Planner

Search our weather history database for the weather conditions in past years. The results will help you decide how hot, cold, wet, or windy it might be!

Date:

Astronomy

Mar. 25, 2014 Rise Set
Actual Time 6:02 AM GMT 6:39 PM GMT
Civil Twilight 5:23 AM GMT 7:18 PM GMT
Nautical Twilight 4:36 AM GMT 8:05 PM GMT
Astronomical Twilight 3:45 AM GMT 8:57 PM GMT
Moon 3:17 AM GMT (3/25) 11:50 AM GMT (3/25)
Length of Visible Light 13h 54m
Length of Day
12h 36m
Waning Crescent, 34% of the Moon is Illuminated
Mar 25
Waning Crescent
Mar 30
New
Apr 7
First Quarter
Apr 15
Full
Apr 22
Last Quarter

Hourly Weather History & Observations

Time (GMT) Temp. Windchill Dew Point Humidity Pressure Visibility Wind Dir Wind Speed Gust Speed Precip Events Conditions
12:00 AM 41 °F - 33 °F 62% 29.63 in 12 mi East 6.9 mph - -   Partly Cloudy
12:50 AM 41.0 °F 37.1 °F 32.0 °F 70% 29.62 in 6.2 mi SE 5.8 mph - N/A   Unknown
1:00 AM 41 °F - 32 °F 61% 29.62 in 12 mi SE 5.8 mph - -  
1:50 AM 42.8 °F 36.2 °F 32.0 °F 66% 29.59 in 6.2 mi SE 12.7 mph - N/A   Unknown
2:00 AM 42 °F - 33 °F 60% 29.61 in 14 mi SE 12.7 mph - -  
2:50 AM 42.8 °F 34.0 °F 33.8 °F 70% 29.59 in 6.2 mi SE 20.7 mph 32.2 mph N/A   Unknown
3:00 AM 43 °F - 33 °F 58% 29.60 in 13 mi SE 20.7 mph - -  
3:50 AM 42.8 °F 34.5 °F 33.8 °F 70% 29.59 in 6.2 mi SE 18.4 mph - N/A   Unknown
4:00 AM 43 °F - 35 °F 63% 29.59 in 13 mi SE 18.4 mph - -  
4:50 AM 42.8 °F 34.5 °F 33.8 °F 70% 29.59 in 6.2 mi SSE 18.4 mph - N/A   Unknown
5:00 AM 43 °F - 35 °F 63% 29.60 in 16 mi SSE 18.4 mph - -  
5:50 AM 42.8 °F 34.3 °F 35.6 °F 76% 29.59 in 6.2 mi SE 19.6 mph - N/A   Unknown
6:00 AM 43 °F - 35 °F 64% 29.61 in 12 mi SE 19.6 mph - -  
6:50 AM 42.8 °F 40.1 °F 35.6 °F 76% 29.65 in 6.2 mi SE 4.6 mph - N/A   Scattered Clouds
7:00 AM 43 °F - 35 °F 64% 29.66 in 12 mi SE 4.6 mph - -   Partly Cloudy
7:50 AM 46.4 °F 44.3 °F 35.6 °F 66% 29.68 in 6.2 mi SE 4.6 mph - N/A   Mostly Cloudy
8:00 AM 46 °F - 36 °F 59% 29.69 in 14 mi SE 4.6 mph - -   Mostly Cloudy
8:50 AM 44.6 °F 36.6 °F 35.6 °F 71% 29.68 in 6.2 mi SSE 19.6 mph 33.4 mph N/A   Partly Cloudy
9:00 AM 45 °F - 36 °F 62% 29.70 in 13 mi SSE 19.6 mph - -   Scattered Clouds
9:50 AM 48.2 °F - 37.4 °F 66% 29.71 in 6.2 mi South 13.8 mph 25.3 mph N/A   Unknown
10:00 AM 49 °F - 37 °F 53% 29.73 in 16 mi South 13.8 mph - -  
10:50 AM 51.8 °F - 37.4 °F 58% 29.74 in 6.2 mi SE 16.1 mph - N/A   Partly Cloudy
11:00 AM 52 °F - 38 °F 48% 29.76 in 31 mi SE 16.1 mph - -   Scattered Clouds
11:50 AM 53.6 °F - 39.2 °F 58% 29.77 in 6.2 mi SE 16.1 mph - N/A   Scattered Clouds
12:00 PM 53 °F - 38 °F 46% 29.79 in 40 mi SE 16.1 mph - -   Partly Cloudy
12:50 PM 53.6 °F - 39.2 °F 58% 29.80 in 6.2 mi SSE 16.1 mph - N/A   Scattered Clouds
1:00 PM 54 °F - 39 °F 46% 29.81 in 31 mi SSE 16.1 mph - -   Partly Cloudy
1:50 PM 53.6 °F - 39.2 °F 58% 29.83 in 6.2 mi SSE 12.7 mph - N/A   Mostly Cloudy
2:00 PM 54 °F - 39 °F 45% 29.83 in 31 mi SSE 12.7 mph - -   Mostly Cloudy
2:50 PM 53.6 °F - 37.4 °F 54% 29.86 in 6.2 mi SSW 10.4 mph - N/A   Mostly Cloudy
3:00 PM 54 °F - 37 °F 42% 29.86 in 44 mi SSW 10.4 mph - -   Mostly Cloudy
3:50 PM 53.6 °F - 37.4 °F 54% 29.89 in 6.2 mi SSW 8.1 mph - N/A   Overcast
4:00 PM 53 °F - 38 °F 46% 29.90 in 40 mi SSW 8.1 mph - -   Overcast
4:50 PM 51.8 °F - 39.2 °F 62% 29.92 in 6.2 mi SSE 11.5 mph - N/A   Mostly Cloudy
5:00 PM 51 °F - 39 °F 53% 29.93 in 17 mi SSE 11.5 mph - -   Mostly Cloudy
5:50 PM 50.0 °F - 39.2 °F 66% 29.95 in 6.2 mi South 8.1 mph - N/A   Mostly Cloudy
6:00 PM 50 °F - 40 °F 58% 29.96 in 19 mi South 8.1 mph - -   Scattered Clouds
6:50 PM 50.0 °F - 39.2 °F 66% 30.01 in 6.2 mi SSE 8.1 mph - N/A   Overcast
7:00 PM 49 °F - 40 °F 61% 30.01 in 25 mi SSE 8.1 mph - -   Overcast
7:50 PM 48.2 °F - 39.2 °F 71% 30.04 in 6.2 mi South 6.9 mph - N/A   Overcast
8:00 PM 49 °F - 39 °F 59% 30.04 in 19 mi South 6.9 mph - -   Overcast
8:50 PM 48.2 °F - 39.2 °F 71% 30.06 in 6.2 mi SSE 5.8 mph - N/A   Mostly Cloudy
9:00 PM 48 °F - 39 °F 61% 30.08 in 14 mi SSE 5.8 mph - -   Mostly Cloudy
9:50 PM 46.4 °F 44.3 °F 39.2 °F 76% 30.09 in 6.2 mi SSW 4.6 mph - N/A   Mostly Cloudy
10:00 PM 46 °F - 39 °F 69% 30.09 in 19 mi SSW 4.6 mph - - Rain Rain
10:50 PM 46.4 °F 44.3 °F 39.2 °F 76% 30.12 in 6.2 mi ESE 4.6 mph - N/A   Mostly Cloudy
11:00 PM 46 °F - 39 °F 68% 30.14 in 15 mi ESE 4.6 mph - -   Partly Cloudy
11:50 PM 46.4 °F 43.5 °F 39.2 °F 76% 30.12 in 6.2 mi SSW 5.8 mph - N/A   Overcast